Location: Angaïs
(43.2333°N, 0.2500°W)
Time: 16:34:40
(UTC+00:00)

Daily predictions for brighter satellites

Satellite Brightness Start Highest point End
(mag) Time Altitude Azimuth Time Altitude Azimuth Time Altitude Azimuth
Cosmos 1624 Rocket 4.3 20:13:12 10° S 20:18:12 47° ESE 20:23:11 10° NNE
GEOS 3 Rocket 3.8 20:15:36 10° SSE 20:20:41 69° SW 20:25:48 10° NW
Cosmos 1190 Rocket 4.3 20:15:58 10° NNW 20:21:12 55° ENE 20:26:23 10° SE
Meteor 1-24 Rocket 4.1 20:17:37 10° SSE 20:22:33 41° E 20:27:36 10° NNE
Cosmos 407 Rocket 3.5 20:18:01 10° NNW 20:23:13 84° ENE 20:28:21 10° SSE
Cosmos 2251 Rocket 4.2 20:18:27 10° NNW 20:23:42 57° WSW 20:28:56 10° S
USA 186 4.4 20:21:55 10° SW 20:23:57 17° W 20:26:03 10° NW
Cosmos 2084 3.2 20:22:44 10° SSW 20:26:31 61° ESE 20:30:20 10° NE
H-2A R/B 2.2 20:26:04 10° NNE 20:30:31 89° WNW 20:35:00 10° SSW
Cosmos 1975 Rocket 3.1 20:27:21 10° S 20:31:45 65° E 20:36:09 10° NNE
Cosmos 1300 3.3 20:28:55 10° NNW 20:32:39 56° W 20:36:21 10° S
Cosmos 1140 Rocket 3.7 20:27:33 10° NNW 20:32:45 75° WSW 20:37:53 10° SSE
S3M 4.1 20:26:48 10° S 20:33:00 81° W 20:39:10 10° N
CARTOSAT-1 4.2 20:29:05 10° SE 20:33:09 42° ENE 20:37:13 10° N
SPOT 3 Rocket 4.2 20:28:58 10° SE 20:33:49 42° ENE 20:38:43 10° N
Cosmos 2056 Rocket 3.6 20:33:45 10° SSW 20:39:06 74° ESE 20:44:32 10° NNE
ATLAS 5 CENTAUR R/B 3.2 20:31:07 10° NW 20:44:42 89° SW 20:48:19 13° SE
Cosmos 1420 Rocket 4.0 20:40:43 10° S 20:45:53 68° ESE 20:51:10 10° NNE
Cosmos 1271 Rocket 3.5 20:43:28 10° N 20:47:13 38° ENE 20:50:15 14° SE
Cosmos 676 Rocket 4.3 20:43:42 10° NNW 20:48:57 58° ENE 20:53:30 13° SE
Cosmos 1544 Rocket 3.9 20:47:04 10° N 20:51:17 48° ENE 20:54:49 14° SSE
Lacrosse 5 rocket 1.2 20:47:27 10° NW 20:51:19 86° NE 20:54:36 15° SE
Tiangong 1.3 20:48:17 10° W 20:51:25 55° S 20:53:52 15° ESE
Cosmos 724 4.3 20:45:51 10° SSW 20:51:32 58° ESE 20:57:12 10° NE
Helios 1A Rocket 3.8 20:53:26 15° SE 20:56:22 34° ENE 21:00:05 10° N
USA 276 2.5 20:53:42 10° WSW 20:56:40 61° NNW 20:59:39 10° NE
X-37B 0.4 20:54:40 10° W 20:57:28 74° N 21:00:17 10° ENE
SPOT 5 3.3 20:55:22 15° SE 20:58:43 40° ENE 21:02:48 10° N
NOSS 2-1 (C) 4.4 20:55:32 10° NNW 21:00:04 58° NE 21:05:16 15° SE
Ariane Rocket 3.2 20:56:12 10° S 21:01:17 72° WSW 21:06:23 10° NNW
USA 267 3.7 20:57:50 10° ENE 21:03:46 35° SE 21:09:38 10° SSW
SPOT 1/Viking Rocket 4.1 20:59:32 10° S 21:04:34 56° W 21:09:39 10° NNW
USA 32 4.0 20:59:40 10° S 21:04:51 75° E 21:10:05 10° N
Cosmos 1954 Rocket 4.0 21:01:23 10° NNW 21:06:42 89° ENE 21:10:58 16° SSE
RESURS DK-1 4.1 21:04:40 10° N 21:07:58 22° NE 21:10:41 13° E
NOSS 2-1 (D) 4.2 21:05:47 10° NNW 21:10:25 69° NE 21:15:21 17° SE
Resurs 01 Rocket 3.0 21:07:07 10° SSW 21:11:12 36° W 21:15:19 10° NNW
Cosmos 1455 2.1 21:10:19 10° N 21:14:09 81° E 21:16:48 19° SSE
Cosmos 2184 Rocket 4.4 21:08:26 10° N 21:14:25 49° ENE 21:18:45 19° SE
Terra 2.2 21:21:16 21° SE 21:24:14 52° ENE 21:28:52 10° N
Lacrosse 5 1.8 21:20:20 10° NW 21:25:29 89° SW 21:28:44 23° SE
COSMOS 2406 4.4 21:25:53 20° SE 21:27:52 24° ESE 21:32:23 10° NE
TSX-5 4.2 21:24:50 10° SSW 21:29:02 75° ESE 21:34:33 10° NNE
Spot 2 Rocket 3.5 21:28:28 20° SSE 21:32:04 89° WSW 21:37:12 10° NNW
CZ-4B R/B 4.1 21:33:06 10° NNW 21:34:52 15° WNW 21:36:38 10° WSW
Cosmos 1980 Rocket 3.9 21:32:38 10° N 21:37:02 22° NE 21:41:03 11° E
ATLAS 2AS CENTAUR R/B 2.8 21:30:31 10° NW 21:37:31 70° WSW 21:41:57 22° SSE
USA 234 4.5 21:31:46 10° E 21:37:40 37° NNE 21:43:34 10° NW
Cosmos 1697 Rocket 3.5 21:34:13 10° NNW 21:39:31 40° ENE 21:42:50 21° ESE
Cosmos 1452 Rocket 3.4 21:35:18 10° SSW 21:40:33 82° ESE 21:45:51 10° NNE
Cosmos 1703 3.1 21:39:26 27° S 21:41:27 76° E 21:45:19 10° NNE
ARIANE 5 R/B 2.8 21:41:11 28° SE 21:43:21 59° ENE 21:47:44 10° N
Cosmos 1656 3.6 21:39:17 10° NNW 21:44:47 88° ENE 21:47:55 27° SSE
CZ-2C R/B 3.7 21:46:51 10° NNE 21:51:28 81° WNW 21:54:43 19° SSW
Cosmos 1110 Rocket 4.0 21:48:03 21° S 21:51:31 65° ESE 21:56:46 10° NNE
GP-B 4.4 21:50:38 10° NNE 21:54:21 25° E 21:55:18 24° ESE
SAR-Lupe-4 4.4 21:51:56 10° NNE 21:55:12 33° E 21:55:20 33° ESE
Cosmos 1328 4.2 21:55:44 38° SE 21:56:42 46° E 22:00:34 10° NNE
SL-8 R/B 4.2 21:53:31 10° WNW 21:58:17 58° NNE 22:02:03 16° E
Cosmos 2074 Rocket 4.2 21:55:32 10° NNW 22:01:47 72° W 22:05:53 23° S
Cosmos 2228 2.9 21:58:12 10° N 22:02:28 88° WSW 22:04:03 38° S
Cosmos 1536 Rocket 4.4 21:59:46 14° SSW 22:03:16 46° WNW 22:07:28 10° N
Cosmos 1833 Rocket 2.6 22:00:12 16° SSW 22:04:42 82° ESE 22:10:21 10° NNE
ERS-1 Rocket 3.6 22:03:27 22° SSW 22:06:27 49° W 22:11:20 10° NNW
Meteor 1-21 Rocket 4.1 22:03:28 24° S 22:06:58 88° E 22:12:39 10° N
SAR-Lupe-1 4.0 22:07:53 10° NNE 22:11:27 62° ESE 22:11:50 56° SE
Cosmos 1606 Rocket 3.5 22:08:00 10° N 22:12:20 75° E 22:13:37 45° SSE
Nadezhda 1 Rocket 3.9 22:11:21 23° S 22:15:22 82° W 22:21:29 10° N
Cosmos 2360 4.2 22:15:52 10° NNW 22:21:38 82° ENE 22:24:01 37° SSE
Cosmos 968 Rocket 4.0 22:20:13 10° N 22:25:15 47° ENE 22:27:10 33° ESE
Tiangong 3.6 22:25:27 10° WSW 22:26:05 14° WSW 22:26:05 14° WSW
Cosmos 2154 Rocket 4.2 22:21:50 10° NNW 22:27:59 64° W 22:31:18 28° SSW
Cosmos 2082 Rocket 2.4 22:27:58 38° SSE 22:29:47 54° ESE 22:35:20 10° NNE
Lacrosse 5 rocket 3.6 22:28:14 10° W 22:29:52 12° WSW 22:30:07 12° SW
X-37B 1.4 22:30:17 10° WNW 22:32:25 43° NW 22:32:25 43° NW
ASTEX 1 3.3 22:28:31 10° N 22:33:34 81° E 22:35:10 44° S
ADEOS Rocket 4.4 22:30:44 21° ESE 22:34:47 38° ENE 22:41:38 10° N
Cosmos 1726 Rocket 3.5 22:32:22 10° N 22:36:42 77° W 22:37:38 53° SSW
Cosmos 1825 3.4 22:38:07 28° ENE 22:38:07 28° ENE 22:40:58 10° NNE
RESURS DK-1 3.3 22:42:15 10° NW 22:46:03 36° WSW 22:46:32 34° SW
USA 267 3.5 22:40:32 10° NE 22:47:03 71° NW 22:53:32 10° WSW
ALOS 2 3.5 22:53:39 34° E 22:54:26 37° ENE 22:58:29 10° N
SL-8 Rocket 3.9 22:50:03 10° N 22:56:19 83° E 22:58:31 43° SSE
H-2A R/B 4.1 22:53:18 10° NNE 22:57:07 40° E 22:57:07 40° E
Cosmos 1602 Rocket 4.4 23:02:19 36° E 23:02:19 36° E 23:06:14 10° NNE
Terra 3.9 23:00:09 13° WSW 23:02:18 17° W 23:05:27 10° NW
Lacrosse 5 3.8 23:04:51 10° W 23:07:47 15° WSW 23:07:55 15° WSW
Cosmos 1869 3.4 23:04:58 10° N 23:08:43 62° ENE 23:08:43 62° ENE
Cosmos 2218 Rocket 4.0 23:04:07 10° N 23:10:34 89° E 23:12:46 45° S
Cosmos 1992 Rocket 4.0 23:09:46 55° SSE 23:10:35 64° ESE 23:15:48 10° NNE
Meteor 1-27 4.1 23:06:00 10° N 23:11:35 80° E 23:13:00 52° SSE
COSMOS 2406 3.9 23:07:52 20° SW 23:11:47 52° WNW 23:17:25 10° NNE
Cosmos 2366 rocket 4.0 23:06:28 10° N 23:12:50 88° W 23:14:58 45° S
Cosmos 1892 3.2 23:13:06 48° W 23:13:17 48° W 23:16:57 10° N
Cosmos 2058 Rocket 3.4 23:09:07 10° NNW 23:13:25 53° W 23:14:00 49° WSW
Cosmos 2369 3.8 23:09:49 10° NNW 23:15:30 65° WSW 23:16:53 49° SSW
SL-16 R/B 3.5 23:10:43 10° N 23:15:51 33° NE 23:18:41 21° ESE
Cosmos 1408 3.8 23:18:49 31° W 23:18:55 31° WNW 23:22:01 10° NNW
Cosmos-2242 3.9 23:15:59 10° N 23:19:55 36° ENE 23:20:11 36° E
USA 234 3.2 23:16:55 33° SE 23:20:13 88° NE 23:26:49 10° NW
Cosmos 2341 Rocket 4.4 23:14:11 10° NNW 23:20:19 54° W 23:22:38 36° SSW
Cosmos 1980 Rocket 2.3 23:15:53 10° NNW 23:21:32 65° WSW 23:22:48 51° SSW
Cosmos 1697 Rocket 3.7 23:18:27 10° NW 23:23:19 31° WSW 23:24:33 28° SW
Cosmos 1626 Rocket 3.4 23:26:42 73° SW 23:26:58 77° W 23:31:20 10° N
Cosmos 2344 4.5 23:23:07 10° NW 23:32:24 64° WSW 23:38:40 33° S
BREEZE-M DEB (TANK) 4.1 23:22:45 10° WSW 23:34:52 70° NNW 23:38:28 10° ENE
Cosmos 1825 Rocket 4.4 23:39:29 38° E 23:39:29 38° E 23:43:23 10° NNE
Cosmos 1503 Rocket 4.4 23:34:09 10° NNW 23:39:23 56° ENE 23:40:43 43° ESE
Spot 4 4.3 23:39:20 45° WSW 23:39:52 47° W 23:44:30 10° NNW
Cosmos 1867 3.5 23:34:27 10° NW 23:39:54 71° WSW 23:40:44 60° S
SL-8 R/B 4.2 23:36:10 10° WNW 23:39:58 44° WSW 23:39:58 44° WSW
Meteor 2-20 4.3 23:49:25 51° S 23:51:07 88° W 23:57:15 10° N
ATLAS 5 CENTAUR R/B 1.4 23:51:32 67° NNW 23:51:32 67° NNW 23:55:26 10° NNE
SJ 16-02 2.1 23:48:14 10° N 23:52:29 43° ENE 23:53:10 40° E
Cosmos 2322 Rocket 2.9 23:48:51 10° NNW 23:54:19 46° ENE 23:56:45 30° ESE
